Location: Unspecified
(0.0000°N, 0.0000°E)
Time: 21:09:34
(UTC+00:00)

PSAT 2 - Visible Passes

Search period start: 24 January 2022 00:00
Search period end: 03 February 2022 00:00
Orbit: 297 x 694 km, 28.5° (Epoch: 24 January)

Date Brightness Start Highest point End Pass type
(mag) Time Alt. Az. Time Alt. Az. Time Alt. Az.
24 Jan ? 19:08:26 10° S 19:11:31 16° SSE 19:14:16 11° ESE visible
24 Jan ? 20:46:59 10° SW 20:48:43 21° SW 20:48:43 21° SW visible
25 Jan ? 18:43:34 10° SSW 18:46:44 17° SSE 18:50:00 10° ESE visible
25 Jan ? 20:22:12 10° SW 20:25:27 41° SW 20:25:27 41° SW visible
26 Jan ? 19:57:23 10° WSW 20:02:10 82° SSW 20:02:10 82° SSW visible
27 Jan ? 19:32:33 10° WSW 19:37:22 88° NW 19:38:52 46° ENE visible
28 Jan ? 19:07:43 10° WSW 19:12:23 81° NNW 19:15:33 22° NE visible
28 Jan ? 20:49:33 10° WNW 20:50:01 12° WNW 20:50:01 12° WNW visible
29 Jan ? 05:19:25 10° N 05:20:53 12° NNE 05:22:15 10° NE visible
29 Jan ? 18:42:52 10° WSW 18:47:21 74° NNW 18:52:12 10° NE visible
29 Jan ? 20:24:51 10° WNW 20:26:39 15° NW 20:26:39 15° NW visible
30 Jan ? 04:55:05 14° N 04:56:01 15° NNE 04:58:00 10° ENE visible
30 Jan ? 20:00:10 10° WNW 20:02:55 15° NNW 20:03:14 15° NNW visible
31 Jan ? 04:31:40 17° NE 04:31:40 17° NE 04:33:32 10° ENE visible
31 Jan ? 19:35:33 10° NW 19:37:50 13° NNW 19:39:47 11° N visible
01 Feb ? 04:08:12 14° ENE 04:08:12 14° ENE 04:08:55 10° ENE visible
01 Feb ? 05:42:47 10° WNW 05:46:16 46° SSW 05:49:19 10° SE visible
01 Feb ? 19:11:03 10° NW 19:12:43 12° NNW 19:14:25 10° N visible
02 Feb ? 05:19:07 21° W 05:21:12 43° SSW 05:24:24 10° SE visible
02 Feb ? 18:47:12 10° NNW 18:47:34 10° NNW 18:47:55 10° NNW visible
